CYHM

Hamilton/John C. Munro Hamilton International Airport

Airport
ICAO code
CYHM
IATA Code
YHM
Summary
ICAO Region
NAM
ICAO Territory
Location

Hamilton, Ontario,

Serving
Hamilton
Elevation
780 ft
Coordinates
43° 10' 23" N , 79° 56' 6" W
KCC
Metar
CYHM 221100Z 01005KT 15SM FEW030 BKN250 17/12 A3005 RMK SC1CI6 SC TR SLP177 DENSITY ALT 1100FT

Description

John C. Munro Hamilton International Airport or Hamilton International, is an international airport in Hamilton, Ontario, Canada.

Climatology

Humid continental climate (Köppen climate classification Dfa) - characterized by four seasons: cold, windy, snowy winters, mild springs, hot, humid summers, and crisp and relatively short autumns. Precipitation reaches its lowest in January and February and peaks in summer and latter half of spring.

Runways

Designator Length Width Surface Rops
6/24 1829 46 ASP Yes/Yes
12/30 3048 61 ASP Yes/Yes

SKYbrary Partners:

Safety knowledge contributed by: